World > North America > United States > Wisconsin   City of Appleton, WI

Appleton, Wisconsin Regional Weather

Lat: 44.26N, Lon: 88.4W
Wx Zone: WIZ038Web Search
Appleton Weather Warning NWS WEATHER ALERT FOR THE APPLETON, WI AREA - Issued: 1154 AM CDT Mon Oct 26 2020 Appleton Weather Warning  

Helpful Tip: Type the letters wx in the search engine next time you need to find us.

Feedback
Appleton Weather Map
UTC Time: 10/26/2020, 18:46
Your Time:

Appleton, WI Regional Weather

Expires:202010261900;;879538
ASUS43 KMKX 261821
RWRWI 

WISCONSIN REGIONAL WEATHER ROUNDUP
NATIONAL WEATHER SERVICE MILWAUKEE/SULLIVAN WI
100 PM CDT MON OCT 26 2020

NOTE: "FAIR" INDICATES FEW OR NO CLOUDS BELOW 12,000 FEET WITH NO
SIGNIFICANT WEATHER AND/OR OBSTRUCTIONS TO VISIBILITY.


WIZ011>013-019>022-031-037>040-048>050-261900-
NORTHEAST WISCONSIN
  
CITY           SKY/WX    TMP DP  RH WIND       PRES   REMARKS
ANTIGO         SUNNY     30  16  56 N9G18     30.25F WCI  22          
6HR MIN TEMP:  23; 6HR MAX TEMP:  29;                                

SHAWANO        PTSUNNY   38  22  52 NW10      30.27F WCI  31          
6HR MIN TEMP:  30; 6HR MAX TEMP:  38;                                

OCONTO         MOSUNNY   36  24  63 NW8       30.26S WCI  30          
6HR MIN TEMP:  29; 6HR MAX TEMP:  37;                                

STURGEON BAY   CLOUDY    36  28  73 NW12      30.25F WCI  28          
6HR MIN TEMP:  33; 6HR MAX TEMP:  36;                                

GREEN BAY      PTSUNNY   38  28  67 NW9       30.27F WCI  31          
6HR MIN TEMP:  30; 6HR MAX TEMP:  38;                                

MANITOWOC      PTSUNNY   35  29  78 NW9       30.28S WCI  28          
6HR MIN TEMP:  31; 6HR MAX TEMP:  36;                                

APPLETON       MOSUNNY   36  19  51 N13       30.26F WCI  27          
CLINTONVILLE   MOSUNNY   37  20  50 NW12      30.27F WCI  29          
6HR MIN TEMP:  27; 6HR MAX TEMP:  36; 6HR PCP:  0.01;                

OSHKOSH        PTSUNNY   37  27  67 N9        30.28F WCI  30          
6HR MIN TEMP:  29; 6HR MAX TEMP:  37;                                

$$
 

SKY/WX - Weather  TMP - Temperature  DP - Dew Point  RH - Relative Humidity
WIND - Wind Direction/Speed PRES - Barometric Pressure VSB - Visibility
WCI - Wind Chill Index E13G22 Wind - East Wind 13 mph/Gusts of 22 mph